Bodensee (Kressbronn): 6,7°C  -  Teich der Wetterzentrale Bad Schussenried: 5,6°C |  Schneehöhe Kreuzthal-Steinberg (930 m ü. NN): 8 cm   
01.04.2020Höhe
ü. NN
ZeitTemperatur (°C)Nieder-
schlag
Luft-
feuchte
Luft-
druck
Wind
StationaktuellMinimumMaximumaktuellMaximum
Aldingen654 m05:46-2,5-3,2 (07:35)-0,3 (16:02)0,0 l/m²74%1023,51,9 km/h (1 Bft) O-SO29,6 km/h (5 Bft) W (14:48)
Allmendingen541 m05:45-6,2-6,2 (07:35)-2,1 (15:10)0,0 l/m²87%1023,41,6 km/h (1 Bft) NO35,4 km/h (5 Bft) O (15:35)
Altshausen574 m05:45-3,6-3,9 (05:14)-1,1 (00:16)0,0 l/m²66%1021,16,4 km/h (2 Bft) N8,0 km/h (2 Bft) N-NO (01:07)
Amstetten-Reutti663 m05:45-4,5-4,5 (05:45)-1,5 (16:55)0,0 l/m²86%1023,04,8 km/h (1 Bft) NO48,3 km/h (6 Bft) W (15:55)
Amtzell-Grenis677 m05:45-3,7-3,8 (05:45)-1,4 (00:00)0,0 l/m²62%1022,86,4 km/h (2 Bft) W-SW6,4 km/h (2 Bft) W-SW (00:00)
Aulendorf570 m05:45-2,6-2,6 (05:29)-0,5 (00:00)0,0 l/m²70%1021,98,0 km/h (2 Bft) NO14,5 km/h (3 Bft) O-NO (05:13)
Bad Krozingen233 m05:45-1,8-1,8 (05:45)3,7 (16:05)0,0 l/m²76%1023,21,7 km/h (1 Bft) S-SW38,1 km/h (5 Bft) N (17:05)
Bad Saulgau595 m05:45-4,7-4,7 (06:45)-1,9 (15:00)0,0 l/m²86%1021,70,0 km/h (0 Bft) S-SO25,7 km/h (4 Bft) S (11:35)
Bad Saulgau, Mannsgrab588 m05:48-5,4-6,1 (05:34)-1,7 (00:17)0,0 l/m²88%1024,30,0 km/h (0 Bft) NW0,0 km/h (0 Bft) N (00:00)
Bad Saulgau-Lampertsweiler627 m05:45-4,3-4,3 (05:45)0,2 (00:00)0,0 l/m²80%1025,04,8 km/h (1 Bft) N-NW22,5 km/h (4 Bft) N-NW (01:15)
Bad Schussenried572 m05:45-3,8-3,8 (05:30)-1,1 (00:00)0,0 l/m²86%1021,40,0 km/h (0 Bft) NO9,7 km/h (2 Bft) NO (03:15)
Bergatreute615 m01:45-0,7-0,7 (00:45)0,0 (00:00)0,0 l/m²77%1023,512,9 km/h (3 Bft) NO16,1 km/h (3 Bft) O-NO (01:40)
Biberach (Riss), Boehringer533 m05:50-3,9-4,0 (05:40)-1,1 (00:30)0,0 l/m²89%1022,14,7 km/h (1 Bft) N11,9 km/h (3 Bft) N (03:00)
Biberach (Riss), Realschule553 m05:50-3,8-3,8 (05:25)-0,3 (00:00)0,0 l/m²87%1023,98,0 km/h (2 Bft) N11,3 km/h (2 Bft) N-NO (03:35)
Burgrieden523 m05:45-3,7-3,7 (05:35)-0,4 (00:00)0,0 l/m²81%1023,00,0 km/h (0 Bft) NO4,8 km/h (1 Bft) O-NO (02:50)
Burgrieden-Hochstetten510 m05:45-4,3-4,3 (06:50)-0,9 (15:40)0,0 l/m²88%1023,43,2 km/h (1 Bft) N-NO25,7 km/h (4 Bft) NO (12:55)
Ebersbach579 m05:45-3,6-3,6 (05:45)-0,1 (00:00)0,0 l/m²84%1023,30,0 km/h (0 Bft) N16,1 km/h (3 Bft) NO (01:25)
Ebersbach-Boos605 m05:45-4,1-4,1 (05:45)-0,1 (00:00)0,0 l/m²86%1023,18,0 km/h (2 Bft) N-NO22,5 km/h (4 Bft) O (01:00)
Ebersbach-Menzenweiler661 m05:45-3,4-3,4 (05:45)-0,6 (00:00)0,0 l/m²86%1023,017,7 km/h (3 Bft) NO24,1 km/h (4 Bft) O-NO (01:05)
Ehingen535 m01:10-2,5-2,5 (01:10)-1,3 (00:05)0,0 l/m²70%1025,40,0 km/h (0 Bft) N-NO5,0 km/h (1 Bft) N-NO (00:15)
Erlenmoos645 m05:45-3,1-3,1 (05:45)-0,9 (00:00)0,0 l/m²85%1022,96,4 km/h (2 Bft) NO12,9 km/h (3 Bft) O-NO (01:35)
Ertingen569 m05:45-3,3-3,3 (05:40)-0,6 (00:00)0,0 l/m²84%1022,99,7 km/h (2 Bft) NW16,1 km/h (3 Bft) N-NO (04:10)
Friedrichshafen405 m05:45-1,3-1,3 (06:45)0,9 (13:30)0,0 l/m²76%1022,66,4 km/h (2 Bft) O-NO27,4 km/h (4 Bft) NO (15:10)
Günzburg443 m05:45-4,6-4,6 (05:35)-1,1 (00:00)0,0 l/m²87%1020,90,0 km/h (0 Bft) NO0,0 km/h (0 Bft) NO (00:00)
Hochdorf-Appendorf537 m05:45-5,4-5,4 (05:45)-1,7 (00:15)0,0 l/m²66%1022,86,4 km/h (2 Bft) N-NO14,5 km/h (3 Bft) N-NW (03:20)
Höchsten802 m05:45-3,2-3,4 (05:35)-1,4 (00:00)0,0 l/m²78%1020,620,9 km/h (4 Bft) NO25,7 km/h (4 Bft) NO (02:45)
Horgenzell618 m05:45-1,9-1,9 (03:45)-0,6 (00:05)0,0 l/m²76%1020,34,8 km/h (1 Bft) N-NO19,3 km/h (3 Bft) N-NO (00:50)
Hoßkirch632 m05:45-6,2-6,2 (05:45)-1,0 (00:15)0,0 l/m²86%1021,96,4 km/h (2 Bft) NO14,5 km/h (3 Bft) O-NO (00:20)
Isny, Am Dreifingerbach695 m05:45-4,2-4,4 (05:00)0,1 (01:00)0,0 l/m²82%1021,60,0 km/h (0 Bft) W14,5 km/h (3 Bft) O-NO (01:05)
Isny, Weidachweg706 m05:45-3,8-3,8 (05:45)0,3 (00:25)0,0 l/m²74%1023,80,0 km/h (0 Bft) W12,9 km/h (3 Bft) W (00:10)
Kappel-Grafenhausen163 m05:40-1,1-1,1 (06:55)3,3 (14:55)0,0 l/m²75%1021,36,4 km/h (2 Bft) N-NO30,6 km/h (5 Bft) N-NO (16:55)
Kißlegg-Staibshof709 m05:45-2,9-2,9 (05:40)-0,9 (00:00)0,0 l/m²81%1022,60,0 km/h (0 Bft) O-NO14,5 km/h (3 Bft) O (01:50)
Kressbronn398 m05:48-1,7-1,7 (05:44)1,4 (00:00)0,0 l/m²74%1021,40,0 km/h (0 Bft) NO22,5 km/h (4 Bft) NO (00:54)
Kreuzthal-Steinberg-Alpe930 m05:40-4,1-4,8 (04:00)-2,5 (00:00)0,0 l/m²87%1023,03,6 km/h (1 Bft) O-NO22,0 km/h (4 Bft) W-NW (00:10)
Kreuzthal-Steinberggipfel1040 m05:40-3,5-4,0 (02:20)-3,1 (00:10)-75%1023,017,3 km/h (3 Bft) O-NO37,1 km/h (5 Bft) O-SO (00:10)
Kristberg im Montafon (AT)1425 m05:45-6,5-6,6 (04:51)-5,3 (00:40)0,0 l/m²61%1026,40,0 km/h (0 Bft) O-NO10,1 km/h (2 Bft) NO (01:47)
Laupheim500 m05:45-3,4-3,4 (05:30)0,0 (00:00)0,0 l/m²82%1022,53,2 km/h (1 Bft) NO9,7 km/h (2 Bft) O-SO (00:20)
Leutkirch-Heggelbach670 m05:45-4,6-4,6 (05:40)-2,6 (00:30)0,0 l/m²86%1021,90,0 km/h (0 Bft) N-NO8,0 km/h (2 Bft) N-NO (03:30)
Lindau-Insel420 m05:45-1,0-1,0 (07:25)1,8 (14:55)0,0 l/m²71%1021,80,0 km/h (0 Bft) O-NO29,0 km/h (5 Bft) NO (17:05)
Lindau-Stadt412 m05:45-1,9-1,9 (07:25)1,2 (14:55)0,0 l/m²75%1022,00,0 km/h (0 Bft) NO33,8 km/h (5 Bft) N-NO (15:40)
Maierhöfen im Allgäu733 m05:45-3,3-3,3 (05:40)-1,2 (01:35)0,0 l/m²75%1022,03,2 km/h (1 Bft) O-NO25,7 km/h (4 Bft) O-SO (02:05)
Maselheim543 m05:45-4,8-4,8 (06:40)-2,3 (13:20)0,0 l/m²85%1023,43,2 km/h (1 Bft) NW24,1 km/h (4 Bft) O-NO (15:20)
Maselheim-Sulmingen548 m05:45-4,7-4,9 (06:40)-2,2 (15:15)0,0 l/m²89%1024,63,2 km/h (1 Bft) N20,9 km/h (4 Bft) N-NO (12:15)
Mietingen-Baltringen528 m05:45-4,7-4,7 (05:40)-1,3 (00:45)0,0 l/m²86%1024,90,0 km/h (0 Bft) O-NO4,8 km/h (1 Bft) N-NO (01:20)
Mindelheim-Apfeltrach620 m05:46-5,3-5,3 (05:36)-2,7 (00:00)0,0 l/m²88%1024,00,0 km/h (0 Bft) NO0,0 km/h (0 Bft) O-NO (00:00)
Mittelbiberach577 m05:46-4,1-4,3 (04:39)-1,0 (00:16)0,0 l/m²83%1024,14,8 km/h (1 Bft) NO11,2 km/h (2 Bft) NO (01:21)
Neresheim552 m05:00-6,2-6,2 (05:00)-2,0 (00:00)0,0 l/m²88%1022,10,0 km/h (0 Bft) O4,0 km/h (1 Bft) NO (01:00)
Neukirch570 m05:45-2,8-2,8 (06:05)-0,9 (14:35)0,0 l/m²80%1022,28,0 km/h (2 Bft) N-NO37,0 km/h (5 Bft) N-NO (11:55)
Ochsenhausen, Birkenstraße613 m05:45-5,0-5,0 (07:10)-2,2 (12:50)0,0 l/m²81%1023,40,0 km/h (0 Bft) NO3,2 km/h (1 Bft) S-SW (07:05)
Ochsenhausen, Unt. Wiesen575 m05:45-5,3-5,5 (05:35)-2,4 (00:00)0,0 l/m²88%1024,60,0 km/h (0 Bft) NO4,8 km/h (1 Bft) NO (00:00)
Opfenbach-Göritz561 m05:46-4,7-5,2 (05:22)-2,8 (00:00)0,0 l/m²76%1020,40,0 km/h (0 Bft) N-NO6,5 km/h (2 Bft) O-NO (00:18)
Ostrach619 m05:45-3,4-3,8 (04:15)-0,6 (00:00)0,0 l/m²88%1021,34,8 km/h (1 Bft) N-NW8,0 km/h (2 Bft) N-NW (04:40)
Ravensburg, Goethestraße428 m05:45-1,4-1,4 (05:40)1,3 (00:00)0,0 l/m²79%1021,914,5 km/h (3 Bft) O-NO14,5 km/h (3 Bft) O-NO (02:45)
Ravensburg-Wernsreute511 m05:45-2,9-2,9 (06:15)0,0 (15:50)0,0 l/m²81%1024,719,3 km/h (3 Bft) N35,4 km/h (5 Bft) N-NO (11:45)
Reichenbach an der Fils343 m05:45-1,8-1,8 (05:45)1,0 (00:00)0,0 l/m²76%1025,61,6 km/h (1 Bft) SO12,9 km/h (3 Bft) O-SO (05:10)
Riedlingen530 m05:45-2,8-2,8 (05:35)-1,0 (00:00)0,0 l/m²80%1023,20,0 km/h (0 Bft) NO0,0 km/h (0 Bft) N (00:00)
Rißtissen489 m05:45-2,8-2,8 (05:15)-0,2 (00:00)0,0 l/m²85%1020,80,0 km/h (0 Bft) O-NO8,0 km/h (2 Bft) O-NO (03:30)
Rottweil-Hausen681 m05:48-4,1-4,3 (04:46)-1,9 (00:00)0,0 l/m²83%1023,66,5 km/h (2 Bft) N-NW6,5 km/h (2 Bft) N (02:14)
Schemmerhofen520 m05:452,72,7 (00:00)2,7 (00:00)0,0 l/m²55%1022,00,0 km/h (0 Bft) NO0,0 km/h (0 Bft) NO (00:00)
Silbertal im Montafon (AT)884 m05:45-4,1-4,1 (05:06)-1,6 (00:01)0,0 l/m²84%1026,10,0 km/h (0 Bft) O-NO0,0 km/h (0 Bft) O-NO (00:00)
Tettnang466 m05:49-1,1-1,1 (05:26)1,0 (00:00)0,0 l/m²71%1021,913,0 km/h (3 Bft) O-SO16,2 km/h (3 Bft) O-SO (01:07)
Tuttlingen648 m05:41-4,3-4,3 (05:41)-2,1 (00:01)0,0 l/m²75%1023,60,0 km/h (0 Bft) N-NO5,2 km/h (1 Bft) W-SW (03:26)
Tuttlingen, Möhringer-Vorstadt711 m05:45-3,9-4,2 (07:10)-2,4 (16:05)0,0 l/m²82%1022,76,4 km/h (2 Bft) NO25,7 km/h (4 Bft) N-NW (12:35)
Ummendorf547 m05:45-3,7-3,8 (05:35)-0,7 (00:10)0,0 l/m²67%1024,00,0 km/h (0 Bft) O-NO16,1 km/h (3 Bft) O (01:05)
Ummendorf-Fischbach558 m05:45-5,0-5,0 (05:45)-1,9 (01:25)0,0 l/m²69%1023,90,0 km/h (0 Bft) S-SO4,8 km/h (1 Bft) O (04:20)
Waldburg707 m05:45-2,9-2,9 (05:45)-0,8 (00:00)0,0 l/m²79%1021,78,0 km/h (2 Bft) N19,3 km/h (3 Bft) N (02:35)
Waltenhofen im Allgäu720 m05:45-7,1-7,2 (05:30)-2,2 (01:05)0,0 l/m²90%1022,80,0 km/h (0 Bft) N-NW17,7 km/h (3 Bft) N-NW (11:50)
Wangen, Südring548 m05:45-3,8-3,8 (05:43)-0,3 (00:00)0,0 l/m²83%1021,86,5 km/h (2 Bft) O-NO13,0 km/h (3 Bft) NO (01:25)
Warthausen-Birkenhard581 m05:49-4,2-4,3 (05:35)-1,2 (00:00)0,0 l/m²86%1023,510,1 km/h (2 Bft) N11,9 km/h (3 Bft) N-NO (02:49)
Winterlingen785 m05:45-5,4-5,5 (05:30)-2,8 (01:00)0,0 l/m²84%1022,71,8 km/h (1 Bft) NO3,6 km/h (1 Bft) NO (00:55)

niederschlagsdatenbank | info | login - erfassung

Sollten Sie Interesse haben, an der Niederschlagsdatenbank teilzunehmen, finden Sie > hier < weitere Informationen.
Datum: . . Kalender
Anmerkung:0,0 = nicht messbarer Niederschlag
 -  = kein Niederschlag
 k  = kumulierter Niederschlag

< 29.04.201901.05.2019 >


Niederschlagswerte vom 30.04.2019    -    derzeit 112 Stationen

Die Niederschlagswerte des gewählten Tages lassen sich durch Klicken auf das Datum sortieren.
Die Angaben sind in l/m².

Station27.04.28.04.29.04.30.04.01.05.02.05.03.05.Bemerkung 30.04.
Aichstetten Ulmenstraße 7-------
Aichstetten-Nestbaum Nestbaum6,01,06,0--6,05,0
Albbruck Furmisstr. 1812,32,8---6,34,0
Bewölkt mit kurzen Aufhellungen +10°C Nachts +4°C
Allmendingen Querqueviller Ring 62,04,81,0--1,01,8
Amstetten-Reutti Gassenäcker 135,21,23,6--0,8-
Aulendorf Steinenbacher Weg 335,04,53,03,6-7,06,3
Regen Nieselregen
Aulendorf-Blönried Heuweg 322,91,92,71,0-6,14,5
Bad Bellingen Rheinstraße 76-------
Bad Buchau Hanfweiher 1-11,52,51,0-6,0-
Bad Saulgau Walserweg5,01,51,50,5-4,54,5
Regen Nieselregen
Bad Saulgau-Hochberg Lampertsweiler Straße 126,06,02,50,8-7,04,0
Bad Schussenried Konradstraße4,65,32,21,5-7,14,6
Regen Nieselregen
Bad Schussenried Lortzingstrasse4,5-2,22,0-7,16,5
Bad Schussenried Klosterstraße5,04,02,02,2-5,07,0
Regen
Bad Schussenried Theodor-Storm-Strasse--21,52,0-5,06,5
Regen
Bad Schussenried-Hopferbach Unterer Öschweg 16/15,07,03,02,0-5,26,2
Regen
Bad Schussenried-Lufthütte Hauptgasse 176,55,02,02,0-8,06,0
Bad Schussenried-Sattenbeuren Ortsstraße 7-------
Bad Schussenried-Schwaigfurt Schwaigfurt 23,05,02,0--6,5-
Bad Waldsee-Haisterkirch Zur Spitzenkapelle 15,50,24,02,8-8,07,5
+5,7/+11,5°C, massiv bewölkt, sehr kühl
Regen
Bad Wurzach-Seibranz Kimpflerhof 2 6,51,09,02,0-10,04,5
Baienfurt Untere Bergstrasse 75,03,05,04,0-5,05,0
Nieselregen
Balzheim Hinterm Liess 193,08,05,01,0-7,06,0
Regen
Berg-Kleintobel Kleintobel5,11,24,82,0-4,85,1
Regen
Biberach Amriswilstrasse2,20,84,21,3-7,76,6
Regen
Biberach Strölinweg2,51,03,52,0-8,0-
Regen Nieselregen
Biberach Erlenweg2,0--7,0 k-7,07,0
Regen Nieselregen
Biberach Neue Heimat 5-------
Biberach Mittelbergstraße 9--14,5--8,04,5
Biberach Auf dem Lindele-------
Biberach-Bergerhausen Löcherstr.12,51,02,04,0-4,56,5
Bierstetten Schloßbühl 65,04,81,0--5,07,0
Blaubeuren-Pappelau Sotzenhauserstr.73,09,5-3,5-0,51,5
Regen
Bühlertal Wolfinstraße 166,010,0-2,0-5,05,0
Regen
Dettingen a. d. Iller Schleifweg 4---10,0 k--18,0
Dornstadt-Tomerdingen Maienweg 96,81,21,20,3-0,60,3
Dürnau Dorfäckerweg 52,01,52,0--7,74,8
Eberhardzell Lilienweg-------
Ebersbach-Roßwälden Appenwiesen7,10,06,3--2,20,0
Ehingen Rosenstraße1,62,81,10,2-0,62,2
Ehingen Zanderstraße1,02,50,9--0,73,3
Ehingen Schlaufenbühl1,83,20,90,3-0,33,2
Regen
Ehingen Schillerstraße1,82,91,00,3-0,52,4
Nieselregen
Ehingen-Herbertshofen Tobelweg 9-------
Eislingen Albstraße 1257,50,26,20,0-4,91,0
Nieselregen
Erbach-Bach Hauptstraße 24---11,0 k-0,52,7
Regen
Erlenmoos Haldenweg 154,5-4,41,3-9,77,8
Regen
Füramoos Hungersberg 10,00,00,04,10,00,017,2
Gutenzell Kleinser Berg 13,52,53,02,5-7,014,0
Gutenzell-Hürbel Bei der Sägmühle 13,03,06,02,0-9,06,0
Regen
Herbertingen Drosselweg2,52,51,50,3-9,06,0
Anfangs noch etwas Nieseln- im Tagesverlauf trocken und sonnig bei lei [weiterlesen...]
Nieselregen Bodennebel Nebelnässe
Herbertingen Hirschstrasse5,01,52,0--9,03,5
Hochdorf-Schweinhausen Lindenweg 23,90,1-6,9 k-9,88,1
Hohentengen-Bremen Bremer Halde 43,53,0-0,5-3,05,0
Nieselregen
Horgenzell-Ringgenweiler Ringgenweiler 6208,15,72,62,3-5,76,8
Hüttisheim Ulmer Weg 22,53,52,5----
Illerkirchberg Mahdauweg 205,74,73,60,5-0,51,8
Regen Nieselregen
Illerrieden-Wangen Am Muckenberg 122,01,52,52,5-3,04,5
Immenstaad Stockwiesen 10-------
Inzigkofen Butzenweg 13,14,00,50,1-4,03,5
Regen
Isny Am Dreifingerbach 3910,83,64,81,4-10,00,8
Regen
Kirchberg Rosenstr. 7-10,05,01,0-9,08,0
Regen
Kreuzthal-Steinberg-Alpe Im Kreuzbachthal 8516,12,911,71,6-12,12,0
Regen Nieselregen
Langenau Wasserstr. 54-14,01,02,01,0-6,51,0
Langenenslingen Schattenweiler Str. 181,65,10,90,00,04,01,3
Bodennebel Nebelnässe
Leutkirch Unterer Auenweg 257,00,07,70,8-6,32,6
Regen
Leutkirch Nachtigallenweg 2810,01,011,02,5-6,05,0
Leutkirch-Adrazhofen Bergstraße 208,50,510,01,5-4,52,5
Merklingen Millergasse 9-------
Mietingen Seerosenweg 10-------
Mietingen-Walpertshofen Bussenweg 313,09,06,02,0-9,05,0
Mittelbiberach-Reute Rindenmooser Straße 23,31,04,81,8-7,06,2
Regen Nieselregen
Moosburg Käserweg 53,00,62,51,1-9,04,0
Vormittags vereinzelt Schauer. Im weiteren Tagesverlauf zunehmend Aufh [weiterlesen...]
Regen
Münsingen-Rietheim In der Lise 205,01,03,80,8-1,00,8
Regen Nieselregen Nebelnässe
Neresheim Alfred-Delp-Straße 84,00,12,8--2,00,0
Oberdischingen Normannenstraße 72,43,71,8----
Ochsenhausen Ehrensberger Weg 54,00,02,22,0-9,27,3
Regen
Öpfingen Hauptstraße 992,01,11,10,8-1,53,0
Regen Nieselregen Bodennebel
Ostrach Uhlandweg6,01,0-1,0-4,05,0
Regen
Pfaffenhofen-Kadeltshofen Mühlbachstraße 42,00,02,04,0-1,05,0
ein sehr trockener April geht zu Ende
Bodennebel Nebelnässe
Pfullendorf Am Schweizersbild 3,50,40,70,8-5,125,2
Rangendingen Donaustraße 194,02,02,0--3,01,0
Ravensburg Bleicherstraße7,82,04,02,1-4,9-
Ravensburg-Schmalegg St.-Magdalena-Ring 426,02,54,91,8-5,73,1
Ravensburg-Wernsreute Wernsreute 254,64,48,42,4-5,62,2
Regen
Ravensburg-Weststadt Karl-Erb-Ring 1428,22,55,12,0-5,85,0
Regen
Regensburg Orleansstraße 3-------
Riedhausen Blütenweg 135,80,22,41,2-8,67,2
Temp. +1,1°C / +10,8°C, Windböen SO 14,5 km/h
Regen
Riedlingen Berliner Str. 416,55,51,00,1-3,02,0
Nieselregen
Riedlingen-Neufra Panoramaweg1,01,01,0--3,02,0
Riedlingen-Neufra Riedlinger Strasse1,55,81,50,50,04,01,5
+ 4,9 Grad, 93 % LF, leicht bewölkt, noch Morgen-Dunst
Schelklingen-Gundershofen Schwarzer-Straße 145,01,01,00,5-1,00,5
Temp. zw. +5,3°C und +21,0°C. Morgens trüb und etwas Nieselregen. M [weiterlesen...]
Schemmerberg Drosselweg 92,04,22,73,0-3,08,8
Schwörstadt Schulstrasse 1918,22,60,2--11,21,2
Seekirch Haldenberg 7-2,02,01,0-5,0-
Sigmaringendorf Weingartenstraße 7-4,10,1--2,93,9
Tuttlingen Möhringerstraße 114,010,01,2--10,41,2
Ulm Eberhardtstraße 753,52,03,12,9---
Regen
Ummendorf Tulpenweg2,50,05,02,3-9,06,1
Regen
Ummendorf Friedrich-Schiller-Str.2,0-0,03,0-10,06,5
Regen
Uttenweiler-Ahlen Seekircher Straße 8-2,03,20,7-2,22,3
Regen
Vöhringen (Schwarzwald) Drosselweg 37,03,04,0--5,04,0
Waldburg Kastanienweg118,14,5-1,8-5,03,8
Wangen-Bergerhöhe Berg 27,210,05,81,0-13,21,0
Warthausen An der Schloßhalde 2,55,82,51,51,5-6,5
Regen
Warthausen Schwabenwiesen 2,15,62,21,8-4,22,6
Regen
Warthausen-Barabein Barabein 203,05,04,01,5-4,05,0
Regen Bodennebel
Weingarten Laurastraße5,04,03,53,5-4,55,0
+ 4,7 ° um 9.00 Uhr
Regen Nieselregen
Weingarten Hoyerstraße-------
Weingarten Marienstraße4,52,53,02,0-4,56,0
Regen Nieselregen
Wolfegg-Veesers Veesers 1--13,0-2,56,96,0
Wolpertswende Aulendorfer Str. 170,00,0---6,94,5

Stillgelegte Niederschlagsstationen    -    derzeit 49 Stationen

StationLetzte Meldung27.04.28.04.29.04.30.04.01.05.02.05.03.05.Bemerkung 30.04.
Allmannsweiler Eggatsweilerstr.2802.09.2014-------
Aulendorf-Rugetsweiler Erikaweg 325.07.2013-------
Aulendorf-Zollenreute Imterstraße 1209.02.2019-------
Bad Saulgau Willi-Burth-Straße19.09.2011-------
Bad Saulgau Eichendorffweg28.03.2013-------
Bad Saulgau Seewattenstraße 12815.01.2014-------
Bad Saulgau-Lampertsweiler Valentinstr. 2618.02.2015-------
Bad Schussenried-Steinhausen Drosselgasse 4/126.09.2012-------
Bad Waldsee-Michelwinnanden Michelberg 531.12.2014-------
Bad Waldsee-Osterhofen Hochwaldgasse 406.03.2015-------
Bad Waldsee-Steinach Hofraingasse 1510.11.2013-------
Bad Wurzach-Dietmanns Postweg 519.01.2019-------
Bad Wurzach-Haidgau Wengener Straße 507.10.2012-------
Bad Wurzach-Ziegelbach Ziegelbach-Greut 507.11.2014-------
Bergatreute Bolanden 113.02.2012-------
Betzenweiler Offinger Straße 505.01.2017-------
Burgrieden Am Nonnenberg 328.10.2013-------
Burgrieden-Rot Schmiedgasse 518.09.2013-------
Eberhardzell Schillerstraße05.07.2010-------
Ehingen Am Elzengraben17.06.2016-------
Gammertingen Schillerstraße 2216.01.2016-------
Griesingen Blumenstraße 906.10.2015-------
Günzburg Erlenbadweg 34 1/231.12.2010-------
Hoßkirch Kirchstraße 805.01.2018-------
Ingoldingen-Grodt Ingoldinger Weg 1919.11.2016-------
Kisslegg Kirchmoosstraße02.05.2011-------
Krauchenwies-Hausen Rosenrain 123.11.2013-------
Kressbronn Irisstraße 410.03.2010-------
Leutkirch-Ottmannshofen Spitalriedstraße 527.07.2012-------
Leutkirch-Rotis Rotis 5/208.05.2016-------
Leutkirch-Wuchzenhofen Untere Kirchstraße 18/119.09.2016-------
Mietingen Hangweg 1530.12.2017-------
Mössingen-Bästenhardt Weissdornweg 721.07.2014-------
Ostrach Heiligenberger Straße19.08.2013-------
Pfullendorf Ringstraße 18.03.2012-------
Ravensburg Olgastraße30.10.2016-------
Seltmans Amselweg 2209.04.2013-------
Stuttgart-Bad Cannstatt Beuthener Str. 6703.02.2013-------
Stuttgart-Möhringen Glashütter Weg 1023.04.2017-------
Stuttgart-Rohr Hirschsprung 307.11.2012-------
Talheim Im Schecken 2121.08.2016-------
Tannheim Eggmannstr. 42 22.10.2017-------
Tettnang-Ramsbach Jahnstr. 24/126.03.2011-------
Tuttlingen-Möhringen Belchenstraße01.01.2015-------
Ummendorf Bergstraße23.10.2017-------
Vogt Mühlwies 1822.05.2015-------
Wangen-Atzenberg Keplerweg 324.02.2019-------
Weingarten Bischof-Sproll-Straße30.06.2011-------
Wilhelmsdorf Riedhauser Straße 28.10.2012-------
Wilhelmsdorf Seefeld20.08.2013-------
Wurmlingen An der Steig 3014.10.2016-------
Die Niederschlagswerte des gewählten Tages lassen sich durch Klicken auf das Datum sortieren.
Die Angaben sind in l/m².

Wetterbeobachtungen Legende:

  • Regen
  • Nieselregen
  • Schneeregen
  • Schnee
  • Graupel
  • Eiskörner
  • Hagel
  • Bodennebel
  • Gewitter
  • Nebelnässe
  • Schneegriesel

Grafische Darstellung der Tagesniederschläge vom 30.04.2019

< 29.04.201901.05.2019 >Monats- und Jahresniederschlag


 
wetterstationen
wetterstationen
- derzeit 83 Stationen
niederschlagsdatenbank
wetterstationen
- kartographische Darstellung
niederschlagsdatenbank
niederschlagsstationen
- derzeit 112 Stationen
niederschlagsdatenbank
niederschlagsstationen
- kartographische Darstellung
 
  treffpunkt & service
--- Anzeigen --------------------------------
zugriffe:
insgesamt: 46.623.169
aktueller monat: 358
heute: 358
momentan online: 20
 
 
monatshöchstwert: 653.625
vorheriger monat: 364.213
gestern: 13.565
tageshöchstwert: 57.073
 
wetterwarte süd
 
konradstraße 3
info@wetterwarte-sued.com
roland roth
 
88427 bad schussenried